Accueil
METAR-TAF:

METAR-TAF

Aéroports :

Pearson Field

Vancouver, Washington, États-Unis

latitude: 45-37-24N, longitude: 122-39-23W, altitude: 7 m

Observation

Le bulletin a été fait il y a 44 minutes, à 19:53 UTC
Vent calme
Température 13°C
Humidité 77%
Pression 1014 hPa
Visibilité: 12.9 km
Ciel clair

METAR: KVUO 221953Z AUTO 00000KT 8SM CLR 13/09 A2993 RMK AO2 SLP135 T01330089

Heure: 13:37 (20:37 UTC)


TAF: absent

Observations et prévisions météorologiques de plus de 4000 aéroports (messages METAR et TAF).

Les stations disponibles sont représentées par des disques jaunes et rouges sur la carte.

Passer la souris dessus pour voir le nom de la station.

Cliquer dessus pour voir les observations et prévisions météorologiques.

Pour changer de carte: cliquez sur les boutons verts avec une croix noire pour zoomer, sur le bouton vert avec un tiret pour effectuer un zoom arrière, ou sur les flèches vertes pour les cartes adjacentes.


METAR-TAF: